Terminal Aerodrome Forecast
Issued by NWS Boise, ID

Home | Current Version | Previous Version | Text Only | Print | Product List | Glossary On
Versions: 1 2 3 4 5 6 7 8 9 10 11 12 13 14 15 16 17 18 19 20 21 22 23 24 25 26 27 28 29 30 31 32 33 34 35 36 37 38 39 40 41 42
161
FTUS45 KBOI 122340
TAFBOI
TAF
KBOI 122340Z 1300/1324 VRB03KT P6SM OVC150
     FM131000 VRB04KT P6SM -SHRA SCT020 OVC030
     FM131500 30006KT P6SM BKN035=

USA.gov is the U.S. government's official web portal to all federal, state and local government web resources and services.